CW8429 Weather Reports


Display with metric or nautical units.
time (UTC)temp
F
wind
direction
speed
MPH
gust
MPH
rain 1hr
in
rain 24hr
in
rain mn
in
humidity
%
barometer
mb
20260503130626 39 119 4.0 7.0 0.00 0.00 0.00 44 1016.5
20260503110628 43 115 3.0 7.0 0.00 0.00 0.00 36 1016.4
20260503002627 64 298 4.0 10.0 0.00 0.00 0.00 30 1016.1
20260503001636 65 288 6.0 10.0 0.00 0.00 0.00 27 1016.1
20260503000620 65 289 4.0 11.0 0.00 0.00 0.00 25 1016.0
20260502235626 65 283 7.0 11.0 0.00 0.00 0.00 25 1016.1
20260502234634 65 316 4.0 10.0 0.00 0.00 0.00 25 1016.1
20260502233621 65 341 5.0 12.0 0.00 0.00 0.00 23 1016.2
20260502232630 65 294 5.0 11.0 0.00 0.00 0.00 22 1016.3
20260502231621 65 311 4.0 13.0 0.00 0.00 0.00 23 1016.4
20260502230650 64 286 6.0 14.0 0.00 0.00 0.00 25 1016.4
20260502225629 65 285 9.0 12.0 0.00 0.00 0.00 24 1016.5
20260502224616 66 301 8.0 11.0 0.00 0.00 0.00 23 1016.5
20260502223622 66 294 9.0 13.0 0.00 0.00 0.00 23 1016.5
20260502222614 66 304 9.0 14.0 0.00 0.00 0.00 24 1016.5
20260502221621 66 269 11.0 15.0 0.00 0.00 0.00 25 1016.7
20260502220629 65 300 9.0 13.0 0.00 0.00 0.00 25 1016.9
20260502215632 64 309 8.0 12.0 0.00 0.00 0.00 29 1017.1
20260502214646 65 309 7.0 11.0 0.00 0.00 0.00 28 1017.2
20260502213616 65 293 8.0 13.0 0.00 0.00 0.00 27 1017.2
20260502212626 66 315 5.0 11.0 0.00 0.00 0.00 21 1017.3
20260502211636 66 292 5.0 11.0 0.00 0.00 0.00 23 1017.5
20260502210630 65 322 6.0 11.0 0.00 0.00 0.00 28 1017.7
20260502205632 65 317 6.0 9.0 0.00 0.00 0.00 36 1017.7
20260502204619 64 344 5.0 10.0 0.00 0.00 0.00 33 1017.8
20260502203626 62 296 6.0 11.0 0.00 0.00 0.00 40 1017.8
20260502202617 61 305 6.0 11.0 0.00 0.00 0.00 43 1018.0
20260502201644 60 317 4.0 10.0 0.00 0.00 0.00 46 1018.1
20260502200630 60 298 6.0 12.0 0.00 0.00 0.00 48 1018.2
20260502195629 62 304 6.0 10.0 0.00 0.00 0.00 42 1018.2
20260502194622 63 281 6.0 9.0 0.00 0.00 0.00 42 1018.3
20260502193613 63 292 4.0 8.0 0.00 0.00 0.00 38 1018.4
20260502192621 61 296 5.0 8.0 0.00 0.00 0.00 42 1018.5
20260502191627 60 304 4.0 10.0 0.00 0.00 0.00 40 1018.8
20260502190620 60 274 6.0 9.0 0.00 0.00 0.00 41 1018.9
20260502185644 59 308 5.0 9.0 0.00 0.00 0.00 43 1019.1